This is the latest recevied weather packets stored in our database for station/object N3WAX-1. If no packets are shown the sender has not sent any weather packets the latest 10 day(s).
| Time | Temp. | Humidity | Pressure | Rain* | Wind** | Luminosity | Snow |
|---|---|---|---|---|---|---|---|
| 1777782952 | 7.22° C | 70% | 1012.5 hPa | 0 mm | - | 0 W/m² | - |
| 1777782336 | 7.78° C | 69% | 1012.6 hPa | 0 mm | - | 0 W/m² | - |
| 1777782030 | 7.78° C | 69% | 1012.7 hPa | 0 mm | - | 0 W/m² | - |
| 1777780324 | 8.33° C | 66% | 1012.7 hPa | 0 mm | - | 0 W/m² | - |
| 1777776504 | 9.44° C | 64% | 1012.9 hPa | 0 mm | - | 0 W/m² | - |
| 1777776034 | 9.44° C | 63% | 1013 hPa | 0 mm | - | 0 W/m² | - |
| 1777772898 | 8.89° C | 65% | 1012.9 hPa | 0 mm | - | 0 W/m² | - |
| 1777771081 | 8.33° C | 64% | 1012.7 hPa | 0 mm | - | 0 W/m² | - |
| 1777765655 | 10° C | 58% | 1012 hPa | 0 mm | - | 12 W/m² | - |
| 1777765356 | 10.56° C | 57% | 1011.9 hPa | 0 mm | - | 16 W/m² | - |
| 1777765055 | 10.56° C | 56% | 1011.9 hPa | 0 mm | - | 21 W/m² | - |
| 1777764155 | 11.11° C | 53% | 1011.7 hPa | 0 mm | - | 42 W/m² | - |
| 1777761753 | 12.22° C | 51% | 1011.7 hPa | 0 mm | - | 81 W/m² | - |
| 1777761452 | 12.78° C | 49% | 1011.7 hPa | 0 mm | - | 62 W/m² | - |
| 1777758891 | 12.78° C | 48% | 1011.6 hPa | 0 mm | - | 139 W/m² | - |
| 1777756927 | 13.33° C | 51% | 1011.4 hPa | 0 mm | - | 283 W/m² | - |
| 1777756463 | 12.78° C | 47% | 1011.4 hPa | 0 mm | - | 239 W/m² | - |
| 1777752998 | 14.44° C | 50% | 1011.2 hPa | 0 mm | - | 810 W/m² | - |
| 1777752095 | 14.44° C | 50% | 1011.3 hPa | 0 mm | - | 483 W/m² | - |
| 1777751494 | 13.33° C | 45% | 1011.4 hPa | 0 mm | - | 439 W/m² | - |
| 1777750435 | 13.89° C | 48% | 1011.8 hPa | 0 mm | - | 418 W/m² | - |
| 1777748488 | 14.44° C | 49% | 1012.3 hPa | 0 mm | - | 1032 W/m² | - |
| 1777747588 | 13.89° C | 52% | 1012.4 hPa | 0 mm | - | 763 W/m² | - |
| 1777747288 | 14.44° C | 50% | 1012.5 hPa | 0 mm | - | 696 W/m² | - |
| 1777746388 | 14.44° C | 53% | 1012.7 hPa | 0 mm | - | 1225 W/m² | - |
* Rain latest hour (hover to see other rain measurements)
** Current wind speed in m/s (hover to see current wind gust speed)